• In Hungary
  • List of Countries
  • For 7 days
  • Water Temperature
  • Satellite Maps
  • Weather Map
  • News
  • Weather Widgets
  • user-avatar
    Login

    Hourly Weather Kurlyshevo

    Today, 22 October, Monday

    Time Temperature Precipitation Wind Pressure Humidity
    00:00 +4°C° 0 mm 1 mps 755 mmHg 81%
    01:00 +4°C° 0 mm 1 mps 755 mmHg 83%
    02:00 +4°C° 0 mm 1 mps 755 mmHg 84%
    03:00 +4°C° 0 mm 1 mps 755 mmHg 83%
    04:00 +4°C° 0 mm 1 mps 755 mmHg 84%
    05:00 +4°C° 0 mm 1 mps 755 mmHg 85%
    06:00 +4°C° 0 mm 1 mps 755 mmHg 86%
    07:00 +4°C° 0 mm 1 mps 755 mmHg 84%
    08:00 +5°C° 0 mm 1 mps 755 mmHg 81%
    09:00 +5°C° 0 mm 1 mps 755 mmHg 77%
    10:00 +6°C° 0 mm 1 mps 754 mmHg 73%
    11:00 +7°C° 0 mm 1 mps 754 mmHg 68%
    12:00 +8°C° 0 mm 1 mps 753 mmHg 64%
    13:00 +9°C° 0 mm 1 mps 753 mmHg 62%
    14:00 +8°C° 0 mm 2 mps 752 mmHg 60%
    15:00 +9°C° 0 mm 2 mps 752 mmHg 58%
    16:00 +8°C° 0 mm 2 mps 751 mmHg 62%
    17:00 +7°C° 0 mm 2 mps 751 mmHg 67%
    18:00 +6°C° 0 mm 2 mps 750 mmHg 71%
    19:00 +5°C° 0 mm 2 mps 750 mmHg 73%
    20:00 +5°C° 0 mm 2 mps 749 mmHg 75%
    21:00 +5°C° 0 mm 2 mps 749 mmHg 77%
    22:00 +4°C° 0 mm 2 mps 748 mmHg 78%
    23:00 +4°C° 0 mm 2 mps 748 mmHg 79%

    Tomorrow, 23 October, Tuesday

    Time Temperature Precipitation Wind Pressure Humidity
    00:00 +4°C° 0 mm 2 mps 747 mmHg 80%
    01:00 +3°C° 0 mm 3 mps 747 mmHg 80%
    02:00 +2°C° 0 mm 3 mps 746 mmHg 80%
    03:00 +2°C° 0 mm 3 mps 745 mmHg 80%
    04:00 +2°C° 0 mm 3 mps 745 mmHg 80%
    05:00 +2°C° 0 mm 3 mps 744 mmHg 80%
    06:00 +2°C° 0 mm 3 mps 743 mmHg 80%
    07:00 +1°C° 0 mm 4 mps 743 mmHg 78%
    08:00 +3°C° 0 mm 4 mps 742 mmHg 76%
    09:00 +3°C° 0 mm 4 mps 742 mmHg 74%
    10:00 +3°C° 0 mm 5 mps 742 mmHg 72%
    11:00 +5°C° 0 mm 5 mps 741 mmHg 69%
    12:00 +6°C° 0 mm 5 mps 741 mmHg 67%
    13:00 +6°C° 0 mm 5 mps 740 mmHg 68%
    14:00 +7°C° 0 mm 4 mps 740 mmHg 69%
    15:00 +7°C° 0 mm 4 mps 739 mmHg 71%
    16:00 +6°C° 0.1 mm 4 mps 739 mmHg 74%
    17:00 +7°C° 0.1 mm 3 mps 739 mmHg 77%
    18:00 +5°C° 0.1 mm 3 mps 738 mmHg 81%
    19:00 +5°C° 0 mm 3 mps 738 mmHg 83%
    20:00 +5°C° 0 mm 3 mps 738 mmHg 84%
    21:00 +4°C° 0 mm 3 mps 737 mmHg 86%
    22:00 +4°C° 0 mm 3 mps 736 mmHg 86%
    23:00 +4°C° 0 mm 3 mps 736 mmHg 87%

    Day after tomorrow, 24 October, Wednesday

    Time Temperature Precipitation Wind Pressure Humidity
    00:00 +4°C° 0 mm 3 mps 735 mmHg 87%
    01:00 +4°C° 0.1 mm 3 mps 734 mmHg 87%
    02:00 +4°C° 0.1 mm 3 mps 734 mmHg 86%
    03:00 +4°C° 0.1 mm 4 mps 733 mmHg 86%
    04:00 +4°C° 0.2 mm 4 mps 732 mmHg 85%
    05:00 +4°C° 0.2 mm 4 mps 732 mmHg 84%
    06:00 +4°C° 0.2 mm 4 mps 731 mmHg 84%
    07:00 +4°C° 0.2 mm 4 mps 730 mmHg 81%
    08:00 +5°C° 0.2 mm 4 mps 730 mmHg 78%
    09:00 +5°C° 0.2 mm 5 mps 730 mmHg 75%
    10:00 +5°C° 0.1 mm 5 mps 729 mmHg 73%
    11:00 +5°C° 0.1 mm 6 mps 729 mmHg 71%
    12:00 +5°C° 0.1 mm 6 mps 729 mmHg 69%
    13:00 +5°C° 0.2 mm 6 mps 728 mmHg 71%
    14:00 +7°C° 0.2 mm 6 mps 728 mmHg 74%
    15:00 +7°C° 0.2 mm 6 mps 728 mmHg 76%
    16:00 +7°C° 0.1 mm 6 mps 728 mmHg 78%
    17:00 +6°C° 0.1 mm 5 mps 727 mmHg 80%
    18:00 +6°C° 0.1 mm 5 mps 727 mmHg 82%
    19:00 +6°C° 0.2 mm 5 mps 727 mmHg 85%
    20:00 +6°C° 0.2 mm 5 mps 727 mmHg 88%
    21:00 +6°C° 0.2 mm 5 mps 727 mmHg 91%
    22:00 +6°C° 0.5 mm 5 mps 726 mmHg 92%
    23:00 +6°C° 0.5 mm 5 mps 726 mmHg 92%

    25 October, Thursday

    Time Temperature Precipitation Wind Pressure Humidity
    00:00 +6°C° 0.5 mm 5 mps 726 mmHg 93%
    01:00 +7°C° 0.6 mm 5 mps 725 mmHg 93%
    02:00 +7°C° 0.6 mm 4 mps 724 mmHg 94%
    03:00 +7°C° 0.6 mm 4 mps 724 mmHg 94%
    04:00 +7°C° 0.3 mm 5 mps 723 mmHg 93%
    05:00 +7°C° 0.3 mm 5 mps 722 mmHg 93%
    06:00 +7°C° 0.3 mm 6 mps 722 mmHg 92%
    07:00 +7°C° 0.9 mm 6 mps 721 mmHg 88%
    08:00 +7°C° 0.9 mm 6 mps 721 mmHg 84%
    09:00 +6°C° 0.9 mm 7 mps 720 mmHg 80%
    10:00 +6°C° 0.1 mm 7 mps 720 mmHg 75%
    11:00 +6°C° 0.1 mm 7 mps 720 mmHg 70%
    12:00 +5°C° 0.1 mm 7 mps 719 mmHg 66%
    13:00 +5°C° 0.4 mm 6 mps 719 mmHg 68%
    14:00 +6°C° 0.4 mm 5 mps 718 mmHg 71%
    15:00 +6°C° 0.4 mm 4 mps 718 mmHg 73%
    16:00 +5°C° 0.3 mm 3 mps 718 mmHg 77%
    17:00 +5°C° 0.3 mm 3 mps 719 mmHg 80%
    18:00 +4°C° 0.3 mm 3 mps 719 mmHg 83%
    19:00 +4°C° 0.1 mm 4 mps 719 mmHg 84%
    20:00 +4°C° 0.1 mm 4 mps 720 mmHg 85%
    21:00 +3°C° 0.1 mm 5 mps 721 mmHg 86%
    22:00 +3°C° 0.1 mm 6 mps 722 mmHg 85%
    23:00 +3°C° 0.1 mm 7 mps 722 mmHg 84%

    26 October, Friday

    Time Temperature Precipitation Wind Pressure Humidity
    00:00 +3°C° 0.1 mm 7 mps 723 mmHg 82%
    01:00 +2°C° 0.2 mm 7 mps 724 mmHg 82%
    02:00 +2°C° 0.2 mm 7 mps 724 mmHg 81%
    03:00 +2°C° 0.2 mm 7 mps 725 mmHg 80%
    04:00 +2°C° 0.2 mm 7 mps 725 mmHg 80%
    05:00 0°C° 0.2 mm 7 mps 726 mmHg 81%
    06:00 +1°C° 0.2 mm 6 mps 727 mmHg 81%
    07:00 +1°C° 0.1 mm 6 mps 727 mmHg 80%
    08:00 +1°C° 0.1 mm 6 mps 728 mmHg 79%
    09:00 +1°C° 0.1 mm 6 mps 729 mmHg 79%
    10:00 0°C° 0 mm 7 mps 730 mmHg 76%
    11:00 0°C° 0 mm 7 mps 731 mmHg 74%
    12:00 +2°C° 0 mm 7 mps 732 mmHg 72%
    13:00 +2°C° 0 mm 7 mps 733 mmHg 70%
    14:00 0°C° 0 mm 7 mps 733 mmHg 69%
    15:00 0°C° 0 mm 7 mps 734 mmHg 67%
    16:00 +1°C° 0 mm 6 mps 735 mmHg 69%
    17:00 +1°C° 0 mm 6 mps 736 mmHg 70%
    18:00 +1°C° 0 mm 6 mps 737 mmHg 72%
    19:00 +1°C° 0 mm 6 mps 737 mmHg 73%
    20:00 +1°C° 0 mm 6 mps 738 mmHg 75%
    21:00 +1°C° 0 mm 6 mps 739 mmHg 76%
    22:00 +1°C° 0 mm 6 mps 739 mmHg 77%
    23:00 +1°C° 0 mm 5 mps 740 mmHg 78%

    27 October, Saturday

    Time Temperature Precipitation Wind Pressure Humidity
    00:00 +1°C° 0 mm 5 mps 740 mmHg 78%
    01:00 +1°C° 0 mm 5 mps 741 mmHg 79%
    02:00 +1°C° 0 mm 5 mps 742 mmHg 79%
    03:00 +1°C° 0 mm 5 mps 742 mmHg 79%
    04:00 0°C° 0 mm 5 mps 743 mmHg 82%
    05:00 0°C° 0 mm 5 mps 743 mmHg 85%
    06:00 -1°C° 0 mm 5 mps 744 mmHg 88%
    07:00 0°C° 0 mm 5 mps 744 mmHg 87%
    08:00 0°C° 0 mm 5 mps 745 mmHg 86%
    09:00 0°C° 0 mm 5 mps 745 mmHg 85%
    10:00 +1°C° 0 mm 6 mps 745 mmHg 80%
    11:00 +2°C° 0 mm 6 mps 746 mmHg 75%
    12:00 +3°C° 0 mm 6 mps 746 mmHg 69%
    13:00 +4°C° 0 mm 6 mps 746 mmHg 69%
    14:00 +5°C° 0 mm 5 mps 746 mmHg 68%
    15:00 +5°C° 0 mm 5 mps 746 mmHg 67%
    16:00 +5°C° 0 mm 5 mps 746 mmHg 71%
    17:00 +3°C° 0 mm 5 mps 746 mmHg 75%
    18:00 +3°C° 0 mm 5 mps 746 mmHg 78%
    19:00 +3°C° 0 mm 5 mps 745 mmHg 78%
    20:00 +3°C° 0 mm 5 mps 745 mmHg 79%
    21:00 +3°C° 0 mm 6 mps 745 mmHg 79%
    22:00 +3°C° 0 mm 6 mps 745 mmHg 79%
    23:00 +4°C° 0 mm 6 mps 745 mmHg 79%

    28 October, Sunday

    Time Temperature Precipitation Wind Pressure Humidity
    00:00 +4°C° 0 mm 6 mps 745 mmHg 79%
    01:00 +4°C° 0 mm 6 mps 744 mmHg 82%
    02:00 +3°C° 0 mm 5 mps 744 mmHg 85%
    03:00 +3°C° 0 mm 5 mps 744 mmHg 88%
    04:00 +3°C° 0 mm 5 mps 744 mmHg 90%
    05:00 +5°C° 0 mm 4 mps 744 mmHg 91%
    06:00 +5°C° 0 mm 4 mps 744 mmHg 92%
    07:00 +6°C° 0.1 mm 4 mps 744 mmHg 93%
    08:00 +7°C° 0.1 mm 5 mps 744 mmHg 93%
    09:00 +7°C° 0.1 mm 5 mps 744 mmHg 94%
    10:00 +8°C° 0 mm 5 mps 744 mmHg 91%
    11:00 +9°C° 0 mm 6 mps 744 mmHg 88%
    12:00 +10°C° 0 mm 6 mps 745 mmHg 85%
    13:00 +10°C° 0 mm 6 mps 744 mmHg 85%
    14:00 +10°C° 0 mm 6 mps 744 mmHg 85%
    15:00 +10°C° 0 mm 7 mps 744 mmHg 85%
    16:00 +10°C° 0 mm 7 mps 744 mmHg 85%
    17:00 +10°C° 0 mm 7 mps 744 mmHg 85%
    18:00 +10°C° 0 mm 7 mps 743 mmHg 86%
    19:00 +10°C° 0.1 mm 7 mps 743 mmHg 85%
    20:00 +11°C° 0.1 mm 7 mps 743 mmHg 85%
    21:00 +11°C° 0.1 mm 7 mps 743 mmHg 84%
    22:00 +11°C° 0.1 mm 7 mps 743 mmHg 84%
    23:00 +11°C° 0.1 mm 7 mps 743 mmHg 83%
    Show more